sat.trackr.live / text

‹ back to catalog

STARLINK-31146

NORAD 58769 · 2024-011E

PAYLOAD ACTIVE UNKNOWN

§ Identity

Operator
Country
US
Launch date
2024-01-14
Launch site
AFWTR
Launch vehicle
Mass (kg)
RCS (m²)

Purposes: comms

External: N2YO · Heavens-Above · Gunter

§ Orbital elements

Epoch: 2026-05-25T01:23:55.149216Z

Period
94.11 min
Inclination
53.1611°
Eccentricity
0.0001376
Mean motion
15.30184925 rev/d
Perigee alt
474.3 km
Apogee alt
476.2 km
Semi-major
6,853.4 km
B*
2.3242e-5
RAAN
18.8809°
Arg perigee
76.2440°
Mean anomaly
283.8714°
Rev number
13,196

§ Raw data

STARLINK-311461 58769U 24011E   26145.05827719  .00000329  00000+0  23242-4 0  99902 58769  53.1611  18.8809 0001376  76.2440 283.8714 15.30184925131969

JSON: /api/v1/satellites/58769 · /tle

For live sub-satellite position, see the globe view (requires WebGL).

§ Visibility from observer

Set your observer location to see the next 7 days of passes ≥ 10°. The values pass through the URL so the page stays shareable.

No JS? Fill the form by hand. The geolocation button needs JavaScript.